TimeMDT,TemperatureF,Dew PointF,Humidity,Sea Level PressureIn,VisibilityMPH,Wind Direction,Wind SpeedMPH,Gust SpeedMPH,PrecipitationIn,Events,Conditions,WindDirDegrees,DateUTC
12:53 AM,46.9,35.1,63,29.89,10.0,WNW,12.7,-,N/A,,Clear,290,2012-10-11 06:53:00
1:53 AM,46.0,34.0,63,29.89,10.0,WNW,9.2,-,N/A,,Clear,290,2012-10-11 07:53:00
2:53 AM,45.0,34.0,65,29.88,10.0,WNW,10.4,-,N/A,,Clear,290,2012-10-11 08:53:00
3:53 AM,45.0,34.0,65,29.89,10.0,West,11.5,-,N/A,,Clear,270,2012-10-11 09:53:00
4:53 AM,45.0,33.1,63,29.88,10.0,WSW,8.1,-,N/A,,Clear,250,2012-10-11 10:53:00
5:53 AM,45.0,33.1,63,29.90,10.0,SSW,6.9,-,N/A,,Clear,200,2012-10-11 11:53:00
6:53 AM,45.0,32.0,60,29.94,10.0,WSW,8.1,-,N/A,,Clear,240,2012-10-11 12:53:00
7:53 AM,50.0,33.1,52,29.92,10.0,West,17.3,-,N/A,,Clear,270,2012-10-11 13:53:00
8:53 AM,60.1,33.1,36,29.93,10.0,West,11.5,-,N/A,,Clear,270,2012-10-11 14:53:00
9:53 AM,68.0,33.1,27,29.93,10.0,WNW,12.7,-,N/A,,Clear,300,2012-10-11 15:53:00
10:53 AM,73.9,32.0,21,29.92,10.0,West,8.1,-,N/A,,Clear,280,2012-10-11 16:53:00
11:53 AM,78.1,32.0,19,29.91,10.0,Variable,3.5,-,N/A,,Clear,0,2012-10-11 17:53:00
12:53 PM,82.9,30.0,15,29.88,10.0,NE,5.8,-,N/A,,Clear,50,2012-10-11 18:53:00
1:53 PM,82.9,33.1,17,29.87,10.0,East,18.4,25.3,N/A,,Clear,80,2012-10-11 19:53:00
2:53 PM,82.9,33.1,17,29.88,10.0,ENE,17.3,26.5,N/A,,Clear,70,2012-10-11 20:53:00
4:53 PM,75.0,37.9,26,29.93,10.0,East,25.3,-,N/A,,Clear,80,2012-10-11 22:53:00
5:53 PM,68.0,37.0,32,29.96,10.0,ENE,25.3,32.2,N/A,,Clear,70,2012-10-11 23:53:00
6:53 PM,63.0,36.0,37,30.01,10.0,ENE,20.7,27.6,N/A,,Clear,70,2012-10-12 00:53:00
7:53 PM,59.0,35.1,41,30.06,10.0,ENE,20.7,26.5,N/A,,Clear,70,2012-10-12 01:53:00
9:53 PM,53.1,35.1,50,30.14,10.0,NE,12.7,-,N/A,,Clear,50,2012-10-12 03:53:00
10:53 PM,50.0,34.0,54,30.14,10.0,NE,10.4,-,N/A,,Clear,50,2012-10-12 04:53:00